TimeEST,TemperatureF,Dew PointF,Humidity,Sea Level PressureIn,VisibilityMPH,Wind Direction,Wind SpeedMPH,Gust SpeedMPH,PrecipitationIn,Events,Conditions,WindDirDegrees,DateUTC
12:15 AM,39.0,34.9,85,30.21,10.0,West,10.4,-,N/A,,Clear,280,2012-12-05 05:15:00
12:35 AM,39.6,34.9,83,30.21,10.0,WNW,8.1,-,N/A,,Clear,290,2012-12-05 05:35:00
12:55 AM,39.2,34.5,83,30.22,10.0,WNW,5.8,-,N/A,,Clear,300,2012-12-05 05:55:00
1:15 AM,38.8,34.3,84,30.23,10.0,West,8.1,-,N/A,,Clear,280,2012-12-05 06:15:00
1:35 AM,37.9,34.0,86,30.23,10.0,West,8.1,-,N/A,,Clear,270,2012-12-05 06:35:00
1:55 AM,37.2,33.3,86,30.23,10.0,WNW,5.8,-,N/A,,Clear,300,2012-12-05 06:55:00
2:15 AM,37.8,32.9,83,30.23,10.0,NW,6.9,-,N/A,,Clear,320,2012-12-05 07:15:00
2:35 AM,37.8,32.5,81,30.24,10.0,NW,5.8,-,N/A,,Clear,320,2012-12-05 07:35:00
2:55 AM,37.2,32.2,82,30.24,10.0,NW,5.8,-,N/A,,Clear,310,2012-12-05 07:55:00
3:15 AM,37.8,32.0,80,30.25,10.0,NNW,6.9,-,N/A,,Clear,330,2012-12-05 08:15:00
3:35 AM,38.5,32.0,78,30.25,10.0,NNW,6.9,-,N/A,,Clear,340,2012-12-05 08:35:00
4:15 AM,38.5,32.0,78,30.26,10.0,North,10.4,-,N/A,,Clear,360,2012-12-05 09:15:00
4:35 AM,38.1,31.8,78,30.26,10.0,North,9.2,-,N/A,,Clear,350,2012-12-05 09:35:00
5:15 AM,36.9,31.3,80,30.28,10.0,North,8.1,-,N/A,,Clear,350,2012-12-05 10:15:00
5:35 AM,36.5,30.7,80,30.28,10.0,North,6.9,-,N/A,,Clear,350,2012-12-05 10:35:00
5:55 AM,35.8,30.2,80,30.29,10.0,North,4.6,-,N/A,,Clear,350,2012-12-05 10:55:00
6:15 AM,35.6,29.7,79,30.31,10.0,North,3.5,-,N/A,,Clear,350,2012-12-05 11:15:00
6:35 AM,35.4,29.5,79,30.31,10.0,North,8.1,-,N/A,,Clear,10,2012-12-05 11:35:00
6:55 AM,35.1,29.3,80,30.32,10.0,North,5.8,-,N/A,,Clear,360,2012-12-05 11:55:00
7:15 AM,34.9,28.9,79,30.33,10.0,North,6.9,-,N/A,,Clear,360,2012-12-05 12:15:00
7:35 AM,34.5,28.6,79,30.33,10.0,North,8.1,-,N/A,,Clear,360,2012-12-05 12:35:00
7:55 AM,34.0,28.4,80,30.34,10.0,North,6.9,-,N/A,,Clear,10,2012-12-05 12:55:00
8:15 AM,33.4,27.7,79,30.34,10.0,North,6.9,-,N/A,,Clear,10,2012-12-05 13:15:00
9:55 AM,34.7,26.4,72,30.39,10.0,NE,8.1,-,N/A,,Clear,50,2012-12-05 14:55:00
10:15 AM,34.9,26.8,72,30.39,10.0,NE,10.4,-,N/A,,Clear,50,2012-12-05 15:15:00
10:35 AM,35.2,27.1,72,30.40,10.0,NE,11.5,-,N/A,,Clear,50,2012-12-05 15:35:00
10:55 AM,35.4,26.8,71,30.40,10.0,NE,11.5,-,N/A,,Clear,40,2012-12-05 15:55:00
11:15 AM,35.6,26.6,70,30.40,10.0,NE,10.4,-,N/A,,Clear,50,2012-12-05 16:15:00
11:35 AM,35.8,26.4,69,30.40,10.0,NE,8.1,-,N/A,,Clear,50,2012-12-05 16:35:00
11:55 AM,36.0,27.0,70,30.39,10.0,NE,5.8,-,N/A,,Clear,40,2012-12-05 16:55:00
12:15 PM,36.3,26.2,67,30.39,10.0,ENE,5.8,-,N/A,,Clear,60,2012-12-05 17:15:00
12:35 PM,36.5,26.2,66,30.38,10.0,East,8.1,-,N/A,,Clear,80,2012-12-05 17:35:00
12:55 PM,36.9,26.2,65,30.37,10.0,NE,3.5,-,N/A,,Clear,40,2012-12-05 17:55:00
1:15 PM,37.0,26.1,65,30.37,10.0,NNE,4.6,-,N/A,,Clear,20,2012-12-05 18:15:00
1:35 PM,37.2,25.9,64,30.37,10.0,ENE,5.8,-,N/A,,Scattered Clouds,60,2012-12-05 18:35:00
1:55 PM,37.8,26.1,63,30.37,10.0,ENE,3.5,-,N/A,,Clear,60,2012-12-05 18:55:00
2:15 PM,38.1,26.2,62,30.36,10.0,Calm,Calm,-,N/A,,Clear,0,2012-12-05 19:15:00
2:35 PM,38.5,26.6,62,30.36,10.0,East,6.9,-,N/A,,Clear,80,2012-12-05 19:35:00
2:55 PM,38.7,25.9,60,30.35,10.0,Calm,Calm,-,N/A,,Clear,0,2012-12-05 19:55:00
3:15 PM,39.0,27.0,62,30.34,10.0,East,5.8,-,N/A,,Clear,80,2012-12-05 20:15:00
3:35 PM,38.8,26.4,61,30.35,10.0,East,3.5,-,N/A,,Clear,100,2012-12-05 20:35:00
3:55 PM,38.8,26.1,60,30.35,10.0,ESE,5.8,-,N/A,,Scattered Clouds,110,2012-12-05 20:55:00
4:15 PM,38.7,26.2,61,30.34,10.0,ESE,3.5,-,N/A,,Scattered Clouds,110,2012-12-05 21:15:00
4:35 PM,38.3,25.9,61,30.35,10.0,ESE,5.8,-,N/A,,Clear,120,2012-12-05 21:35:00
4:55 PM,38.1,26.2,62,30.36,10.0,East,4.6,-,N/A,,Clear,80,2012-12-05 21:55:00
5:15 PM,36.9,26.4,66,30.35,10.0,East,6.9,-,N/A,,Clear,100,2012-12-05 22:15:00
5:35 PM,35.6,26.4,69,30.35,10.0,East,5.8,-,N/A,,Clear,90,2012-12-05 22:35:00
5:55 PM,34.3,26.4,73,30.35,10.0,East,5.8,-,N/A,,Clear,90,2012-12-05 22:55:00
6:15 PM,33.6,26.4,75,30.35,10.0,East,5.8,-,N/A,,Clear,90,2012-12-05 23:15:00
6:35 PM,33.1,26.1,75,30.35,10.0,East,5.8,-,N/A,,Clear,80,2012-12-05 23:35:00
6:55 PM,32.9,25.7,75,30.35,10.0,ENE,6.9,-,N/A,,Clear,70,2012-12-05 23:55:00
7:15 PM,32.4,25.7,76,30.34,10.0,ENE,8.1,-,N/A,,Clear,70,2012-12-06 00:15:00
7:35 PM,32.2,25.9,78,30.35,10.0,ENE,8.1,-,N/A,,Clear,70,2012-12-06 00:35:00
7:55 PM,32.0,25.3,76,30.34,10.0,East,6.9,-,N/A,,Clear,90,2012-12-06 00:55:00
8:15 PM,32.0,25.2,76,30.34,10.0,East,8.1,-,N/A,,Clear,80,2012-12-06 01:15:00
8:35 PM,31.8,25.0,76,30.34,10.0,East,9.2,-,N/A,,Clear,80,2012-12-06 01:35:00
8:55 PM,31.5,24.8,76,30.34,10.0,East,6.9,-,N/A,,Clear,90,2012-12-06 01:55:00
9:15 PM,31.1,24.4,76,30.33,10.0,East,6.9,-,N/A,,Clear,100,2012-12-06 02:15:00
9:35 PM,31.1,24.3,76,30.34,10.0,ESE,5.8,-,N/A,,Clear,110,2012-12-06 02:35:00
9:55 PM,30.7,24.3,77,30.33,10.0,East,6.9,-,N/A,,Clear,100,2012-12-06 02:55:00
10:15 PM,30.4,24.1,77,30.32,10.0,ESE,4.6,-,N/A,,Clear,110,2012-12-06 03:15:00
10:35 PM,30.2,23.9,77,30.31,10.0,East,6.9,-,N/A,,Clear,100,2012-12-06 03:35:00
11:15 PM,30.0,23.9,78,30.31,10.0,ESE,5.8,-,N/A,,Clear,110,2012-12-06 04:15:00
11:35 PM,29.8,23.7,78,30.31,10.0,East,5.8,-,N/A,,Clear,100,2012-12-06 04:35:00
11:55 PM,29.8,23.7,78,30.30,10.0,East,5.8,-,N/A,,Clear,100,2012-12-06 04:55:00